Meteo

Meteo Humidity IN32.0% MH0/MH02019-11-12 12:03:01
Meteo Humidity OUT91.0% MH1/MH12019-11-12 12:03:01
Meteo Pressure1017.8hPa MP0/MP02019-11-12 12:03:01
Rain (mm)926.7mm MR0/MR02019-11-12 12:03:01
Meteo Temperature IN25.1°C MT0/MT02019-11-12 12:03:01
Meteo Temperature OUT4.9°C MT1/MT12019-11-12 12:03:01
Average wind speed1.0m/s MW0/MW02019-11-12 12:03:01
Wind direction180.0° MD0/MD02019-11-12 12:03:01
Wind gust speed1.4m/s MW1/MW12019-11-12 12:03:01

Ground Floor

Kitchen26.8°C TA1/P102019-11-12 12:27:04
Heating output45.7°C TA2/P202019-11-12 12:27:04
Garage17.3°C TA3/P302019-11-12 12:27:04
H.W.D.T.159.8°C TA7/P712019-11-12 12:27:04
Passage7.8°C TA5/P512019-11-12 12:27:04
Tech. room12.5°C TA0/X502019-11-12 12:22:05
Yard4.1°C TA4/P402019-11-12 12:27:04
Cold corner14.6°C TA6/P602019-11-12 12:27:04

First Floor

Bathroom21.6°C TB7/X112019-11-12 12:27:04
Kitchen23.4°C TB5/X302019-11-12 12:27:04
Room23.9°C TB6/X102019-11-12 12:27:04

Second Floor

Storage-room14.4°C TC5/P502019-11-12 12:27:04
Corridor0.3°C TC2/P212019-11-12 12:27:04
Attic0.0°C TC3/P322019-11-12 12:27:04
Cold Corner10.9°C TC7/X602019-11-12 12:27:04
Street5.2°C TC1/P112019-11-12 12:27:04
Server CPU 025.0°C C00/C002019-11-12 12:27:04
Server CPU 119.0°C C01/C012019-11-12 12:27:04
HDD S2T ST2000VX002°C HS2T/C31
HDD S4T ST4000DX00124.0°C HS4T/C332019-11-12 12:27:04
HDD W4T WD40EFRX26.0°C HW4T/C322019-11-12 12:27:04
HDD T3T ST3000VX000°C HT3T/C29
HDD Y4T ST4000VN008 - Y°C HY4T/C49
HDD Z4T ST4000VN008 - Z18.0°C HZ4T/C482019-11-12 12:27:04

Now : 2019-11-12 12:28:31